Regional Weather Roundup
Issued by NWS

Home | Current Version | Previous Version | Text Only | Print | Product List | Glossary On
Versions: 1 2 3 4 5 6 7 8 9 10 11 12 13 14 15 16 17 18 19 20 21 22 23 24 25 26 27 28 29 30 31 32 33 34 35 36 37 38 39 40 41 42 43 44 45 46 47 48 49 50
000
ASUS43 KLSX 111057
RWRMO

WEATHER SUMMARY FOR MISSOURI
NATIONAL WEATHER SERVICE SPRINGFIELD MO
500 AM CST SUN DEC 11 2016

NOTE: "FAIR" INDICATES FEW OR NO CLOUDS BELOW 12,000 FEET WITH NO
       SIGNIFICANT WEATHER AND/OR OBSTRUCTIONS TO VISIBILITY.
       CURRENT SKY AND/OR WEATHER CONDITIONS ARE NOT AVAILABLE FOR
       CHILLICOTHE AND FARMINGTON.

MOZ001>031-035>038-043-044-053-054-111200-
...NORTHERN AND WESTERN MISSOURI...

CITY           SKY/WX    TMP DP  RH WIND       PRES   REMARKS
KANSAS CTY INT CLOUDY    40  25  55 SE8       29.79F
LEE`S SUMMIT   CLOUDY    39  25  57 S9        29.81F
ST JOSEPH      CLOUDY    37  24  59 SE9       29.79F
CHILLICOTHE      N/A     37  22  54 SE8       29.86F

$$
MOZ066>068-077>081-088>096-101>105-111200-
...SOUTHWEST MISSOURI...

CITY           SKY/WX    TMP DP  RH WIND       PRES   REMARKS
SPRINGFIELD    CLOUDY    43  26  51 S15       29.87F
JOPLIN         CLOUDY    47  31  53 S20G30    29.84F

$$
MOZ032>034-039>042-045>050-055>058-069>072-111200-
...CENTRAL MISSOURI...

CITY           SKY/WX    TMP DP  RH WIND       PRES   REMARKS
COLUMBIA       NOT AVBL
JEFFERSON CITY CLOUDY    42  24  49 SE7       29.93F
ROLLA          CLOUDY    39  20  46 S18       29.93F WCI  30
SEDALIA        CLOUDY    43  26  51 S15       29.88F
WARRENSBURG    CLOUDY    41  28  60 S12G17    29.85S

$$
MOZ051-052-059>065-111200-
...EAST CENTRAL MISSOURI...

CITY           SKY/WX    TMP DP  RH WIND       PRES   REMARKS
ST LOUIS INTL  CLOUDY    40  17  39 SE10      30.01F

$$
MOZ072>076-082>087-097>100-106>115-111200-
...SOUTH CENTRAL AND SOUTHEAST MISSOURI...

CITY           SKY/WX    TMP DP  RH WIND       PRES   REMARKS
CAPE GIRARDEAU CLOUDY    40  20  44 S15       30.14F
POPLAR BLUFF   CLOUDY    40  24  53 S13       30.13F
WEST PLAINS    CLOUDY    39  23  52 S15G23    30.01F

$$


USA.gov is the U.S. government's official web portal to all federal, state and local government web resources and services.